Skip Page Navigation
NASA JPL Caltech
NASA Logo - Jet Propulsion Laboratory + View the NASA Portal
+ Center for Near-Earth Object Studies
JPL Home Earth Solar System Stars & Galaxies Technology
JPL Solar System Dynamics
BODIES ORBITS EPHEMERIDES TOOLS PHYSICAL DATA DISCOVERY FAQ SITE MAP
JPL Small-Body Database Browser
Search: [ help ]  
8149 Ruff (1985 JN1)
Classification: Main-belt Asteroid          SPK-ID: 2008149
Ephemeris | Orbit Diagram | Orbital Elements | Mission Design | Physical Parameters | Discovery Circumstances | Close-Approach Data ]

[ show orbit diagram ]
Orbital Elements at Epoch 2459000.5 (2020-May-31.0) TDB
Reference: JPL 35 (heliocentric ecliptic J2000)
 Element Value Uncertainty (1-sigma)   Units 
e .1431040223478963 3.2101e-08  
a 2.322324283881234 7.4648e-09 au
q 1.989990337661631 7.6055e-08 au
i 6.587746551697372 3.4413e-06 deg
node 81.33626013028424 3.6166e-05 deg
peri 170.2902824000182 3.9846e-05 deg
M 311.1301715659234 1.88e-05 deg
tp 2459175.977337270398
(2020-Nov-22.47733727)
6.7822e-05 TDB
period 1292.655273029241
3.54
6.2326e-06
1.706e-08
d
yr
n .2784965237919672 1.3428e-09 deg/d
Q 2.654658230100836 8.533e-09 au
  Orbit Determination Parameters
   # obs. used (total)      2351  
   data-arc span      25106 days (68.74 yr)  
   first obs. used      1951-11-08  
   last obs. used      2020-08-03  
   planetary ephem.      DE431  
   SB-pert. ephem.      SB431-N16  
   condition code      0  
   norm. resid. RMS      .45343  
   source      ORB  
   producer      Otto Matic  
   solution date      2020-Aug-24 23:56:53  

Additional Information
 Earth MOID = .975868 au 
 Jupiter MOID = 2.38028 au 
 T_jup = 3.554 
[ show covariance matrix ]

Ephemeris | Orbit Diagram | Orbital Elements | Mission Design | Physical Parameters | Discovery Circumstances | Close-Approach Data ]

Physical Parameter Table
Parameter Symbol Value Units Sigma Reference Notes
absolute magnitude H 13.4   n/a MPO358710  
diameter diameter 4.091 km 0.132 urn:nasa:pds:neowise_diameters_albedos::2.0[mainbelt] (http://adsabs.harvard.edu/abs/2011ApJ...741...68M)  
geometric albedo albedo 0.554   0.116 urn:nasa:pds:neowise_diameters_albedos::2.0[mainbelt] (http://adsabs.harvard.edu/abs/2011ApJ...741...68M)  

8149 Ruff           Discovered 1985 May 11 by C. Shoemaker and E. Shoemaker at Palomar.
Jan Ruff (b. 1949) is the very capable, warm-spirited and enthusiastic chief of the Office of Public Affairs for Goddard Space Center, NASA. Steve Ruff (b. 1949) is an imaginative, creative and knowledgeable middle-school teacher with a wonderful dry sense of humor.
NOTE: some special characters may not display properly (any characters within {} are an attempt to place the proper accent above a character)
Reference: 20000320/MPCPages.arcLast Updated: 2013-03-29

[ show close-approach data ]
Alternate Designations
 1985 JN1 = 1992 HC 
Ephemeris | Orbit Diagram | Orbital Elements | Mission Design | Physical Parameters | Discovery Circumstances | Close-Approach Data ]
ABOUT SSD CREDITS/AWARDS PRIVACY/COPYRIGHT GLOSSARY LINKS
FirstGov 2020-Oct-23 21:56 UT
(server date/time)  
NASA Home Page
Site Manager:   Ryan S. Park
Webmaster  Alan B. Chamberlin